#timestamp,LO_Frequency,Hit,StdDev 
1628110815.2,286046998.9,N
1628110835.9,286046997.5,N
1628110855.7,286046996.4,N
1628110875.6,286046995.2,N
1628110895.4,286046996.1,N
1628110915.3,286046995.6,N
1628110935.1,286046994.4,N
1628110936.0,286046994.4,N
1628110955.8,286046992.4,N
1628110975.7,286046992.7,N
1628110995.5,286046990.5,N
1628111015.4,286046990.2,N
1628111035.2,286046991.9,N
1628111055.0,286046991.9,N
1628111055.9,286046991.9,N
1628111075.8,286046993.2,N
1628111095.6,286046992.8,N
1628111115.5,286046992.0,N
1628111135.3,286046991.7,N
1628111155.1,286046992.3,N
1628111175.9,286046992.8,N
1628111195.7,286046992.3,N
1628111215.5,286046991.7,N
1628111235.4,286046994.4,N
1628111255.2,286046991.9,N
1628111275.0,286046992.6,N
1628111276.0,286046992.6,N
1628111295.8,286046992.6,N
1628111345.7,286046991.7,E
1628111355.6,286046997.6,N
1628111375.4,286047002.7,P
1628111395.3,286046999.9,N
1628111445.1,286047002.8,E
1628111455.0,286047000.9,N
1628111455.9,286047000.9,P
1628111475.8,286046996.8,P
1628111495.6,286046996.6,N
1628111515.5,286046999.0,N
1628111535.3,286046998.1,N
1628111555.1,286047000.4,N
1628111575.9,286047001.2,N
1628111595.7,286047000.8,N
1628111615.5,286047000.3,N
1628111635.4,286047000.9,N
1628111655.2,286047000.0,N
1628111675.1,286046998.6,N
1628111676.0,286046998.6,N
1628111695.8,286046998.1,N
1628111715.6,286047000.3,N
1628111735.5,286047001.2,N
1628111755.3,286047000.6,N
1628111775.1,286047001.2,N
1628111795.9,286047000.6,N
1628111815.7,286047000.9,N
1628111835.6,286047001.0,N
1628111855.4,286047001.1,N
1628111875.2,286047001.2,N
1628111895.1,286047000.6,N
1628111896.0,286047000.6,N
1628111915.8,286046998.8,N
1628111935.6,286046998.6,N
1628111955.5,286047001.2,N
1628111975.3,286046998.1,N
1628111995.2,286046998.1,N
1628112015.9,286046998.3,N
1628112035.7,286047000.8,N
1628112055.6,286047000.0,N
1628112075.4,286047000.4,N
1628112095.2,286047001.0,N
1628112115.1,286047000.7,N
1628112116.0,286047000.7,N
1628112135.8,286047000.0,N
1628112155.7,286047000.9,N
1628112175.5,286047000.0,N
1628112195.3,286047002.5,N
1628112215.2,286047001.8,N
1628112235.0,286047002.2,N
1628112235.9,286047002.2,N
1628112255.8,286046999.8,N
1628112275.6,286047001.2,N
1628112295.4,286046998.3,N
1628112315.3,286046998.3,N
1628112335.1,286046998.2,N
1628112355.8,286046998.2,N
1628112375.7,286047001.1,N
1628112395.5,286047000.8,N
1628112415.3,286047000.0,N
1628112435.2,286047002.2,N
1628112455.0,286047001.8,N
1628112455.9,286047001.8,N
1628112475.8,286047001.6,N
1628112495.6,286047002.6,N
1628112515.4,286047000.1,N
1628112535.3,286047001.1,N
1628112555.1,286047000.6,N
1628112575.9,286046999.8,N
1628112595.7,286047001.1,N
1628112615.5,286047002.5,N
1628112635.4,286046999.8,N
1628112655.2,286047000.9,N
1628112675.0,286047000.9,N
1628112675.9,286047000.9,N
1628112695.8,286047000.4,N
1628112715.6,286047000.2,N
1628112735.5,286047000.3,N
1628112755.3,286047000.4,N
1628112775.1,286047000.0,N
1628112795.9,286047002.8,N
1628112815.7,286047002.6,N
1628112835.5,286047002.4,N
1628112855.4,286047002.4,N
1628112875.2,286047000.1,N
1628112895.1,286046999.8,N
1628112896.0,286046999.8,N
1628112915.8,286047000.0,N
1628112935.6,286047001.6,N
1628112955.5,286046999.7,N
1628112975.3,286047000.0,N
1628112995.1,286046999.7,N
1628113015.9,286046999.9,N
1628113035.7,286047002.8,N
1628113055.6,286047001.5,N
1628113075.4,286047002.6,N
1628113095.2,286047002.3,N
1628113115.1,286046999.7,N
1628113116.0,286046999.7,N
1628113135.8,286047000.7,N
1628113155.6,286046998.2,N
1628113175.5,286046998.1,N
1628113195.3,286046999.9,N
1628113215.2,286047001.2,N
1628113235.9,286047001.0,N
1628113255.7,286047002.7,N
1628113275.6,286047000.7,N
1628113295.4,286047000.7,N
1628113315.2,286047002.7,N
1628113335.1,286047000.3,N
1628113336.0,286047000.3,N
1628113355.8,286047000.3,N
1628113375.7,286047002.3,N
1628113395.5,286047000.5,N
1628113415.3,286046998.6,N
1628113435.2,286047001.1,N
1628113455.0,286047000.7,N
1628113455.9,286047000.7,N
1628113475.8,286046998.1,N
1628113495.6,286046998.4,N
1628113515.4,286047000.3,N
1628113535.3,286046999.7,N
1628113555.1,286047001.3,N
1628113575.9,286047003.1,N
1628113595.7,286047003.3,N
1628113615.5,286047003.3,N
1628113635.4,286047005.1,Y
1628113655.2,286047005.9,P
1628113675.1,286047005.6,N
1628113676.0,286047005.6,N
1628113695.8,286047005.7,N
1628113715.6,286047005.7,N
1628113735.5,286047004.7,N
1628113755.3,286047004.5,N
1628113775.1,286047007.1,Y
1628113795.9,286047001.6,P
1628113815.7,286047001.6,N
1628113835.6,286047002.2,N
1628113855.4,286047001.9,N
1628113875.2,286047001.7,N
1628113895.1,286047001.8,N
1628113896.0,286047001.8,N
1628113915.8,286047003.8,Y
1628113935.7,286047000.7,P
1628113955.5,286046998.1,N
1628113975.3,286046999.0,N
1628113995.2,286046999.4,N
1628114015.0,286046999.2,N
1628114015.9,286046999.2,N
1628114035.7,286046999.3,N
1628114055.6,286046996.7,N
1628114075.4,286046996.6,N
1628114095.3,286046997.4,N
1628114115.1,286046997.5,N
1628114116.0,286046997.5,N
1628114135.8,286046998.0,N
1628114155.7,286046995.4,Y
1628114175.5,286046997.0,P
1628114195.4,286046996.8,P
1628114215.2,286046997.7,N
1628114235.0,286046994.9,Y
1628114235.9,286046994.9,P
1628114255.8,286046999.5,N
1628114275.6,286046995.0,N
1628114295.5,286046993.7,Y
1628114315.3,286046999.2,P
1628114335.2,286046997.5,N
1628114355.9,286046995.3,P
1628114375.7,286046994.9,Y
1628114395.6,286047000.8,P
